Weather History for Iliamna, AK

Change the Weather History Date:

Thursday, November 1, 2012

  Actual Average Record
Temperature  
Mean Temperature 21 °F -  
Max Temperature 30 °F 34 °F 49 °F (1986)
Min Temperature 12 °F 23 °F -5 °F (1985)
Degree Days  
Heating Degree Days 44    
Moisture  
Dew Point 11 °F    
Average Humidity 62    
Maximum Humidity 80    
Minimum Humidity 42    
Precipitation  
Precipitation 0.00 in - - ()
Sea Level Pressure  
Sea Level Pressure 29.71 in    
Wind  
Wind Speed 10 mph (North)    
Max Wind Speed 15 mph    
Max Gust Speed 22 mph    
Visibility 10 miles    
Events      
Averages and records for this station are not official NWS values.
T = Trace of Precipitation, MM = Missing Value Source: NWS Daily Summary

Daily Weather History Graph

Daily Weather History Graph

Search for Another Location

Airport:

Trip Planner

Search our weather history database for the weather conditions in past years. The results will help you decide how hot, cold, wet, or windy it might be!

Date:

Astronomy

Nov. 01, 2012 Rise Set
Actual Time 9:42 AM AKDT 6:22 PM AKDT
Civil Twilight 8:57 AM AKDT 7:07 PM AKDT
Nautical Twilight 8:08 AM AKDT 7:56 PM AKDT
Astronomical Twilight 7:20 AM AKDT 8:44 PM AKDT
Moon 7:51 PM AKDT (11/1) 1:01 PM AKDT (11/1)
Length of Visible Light 10h 09m
Length of Day
8h 40m
Waning Gibbous, 92% of the Moon is Illuminated
Nov 1
Waning Gibbous
Nov 6
Last Quarter
Nov 13
New
Nov 20
First Quarter
Nov 28
Full

Hourly Weather History & Observations

Time (AKDT) Temp. Windchill Dew Point Humidity Pressure Visibility Wind Dir Wind Speed Gust Speed Precip Events Conditions
12:53 AM 17.1 °F 8.7 °F 6.1 °F 62% 29.69 in 10.0 mi North 5.8 mph - N/A   Overcast
1:53 AM 17.1 °F 5.8 °F 7.0 °F 65% 29.70 in 10.0 mi North 9.2 mph - N/A   Overcast
2:53 AM 17.1 °F 8.7 °F 8.1 °F 68% 29.71 in 10.0 mi North 5.8 mph - N/A   Overcast
3:53 AM 19.0 °F 9.0 °F 9.0 °F 65% 29.71 in 10.0 mi North 8.1 mph - N/A   Overcast
5:53 AM 16.0 °F 7.4 °F 9.0 °F 74% 29.72 in 10.0 mi North 5.8 mph - N/A   Mostly Cloudy
6:53 AM 17.1 °F 5.0 °F 9.0 °F 71% 29.72 in 10.0 mi North 10.4 mph - N/A   Mostly Cloudy
7:53 AM 15.1 °F 4.2 °F 9.0 °F 77% 29.73 in 10.0 mi North 8.1 mph - N/A   Partly Cloudy
8:53 AM 14.0 °F 1.2 °F 9.0 °F 80% 29.74 in 10.0 mi North 10.4 mph - N/A   Partly Cloudy
9:53 AM 14.0 °F 1.2 °F 8.1 °F 77% 29.75 in 10.0 mi North 10.4 mph - N/A   Partly Cloudy
10:53 AM 16.0 °F 2.3 °F 9.0 °F 74% 29.77 in 10.0 mi North 12.7 mph - N/A   Overcast
11:53 AM 18.0 °F 4.2 °F 9.0 °F 68% 29.76 in 10.0 mi North 13.8 mph 19.6 mph N/A   Clear
12:53 PM 19.9 °F 7.3 °F 10.9 °F 68% 29.77 in 10.0 mi North 12.7 mph - N/A   Overcast
2:53 PM 26.1 °F 14.0 °F 14.0 °F 60% 29.74 in 10.0 mi NNE 15.0 mph 21.9 mph N/A   Mostly Cloudy
3:53 PM 28.9 °F 18.2 °F 15.1 °F 56% 29.73 in 10.0 mi North 13.8 mph 20.7 mph N/A   Mostly Cloudy
4:53 PM 30.0 °F 19.1 °F 15.1 °F 54% 29.71 in 10.0 mi North 15.0 mph 19.6 mph N/A   Mostly Cloudy
5:53 PM 28.9 °F 18.6 °F 15.1 °F 56% 29.69 in 10.0 mi North 12.7 mph - N/A   Mostly Cloudy
6:53 PM 28.0 °F 17.5 °F 14.0 °F 56% 29.67 in 10.0 mi North 12.7 mph - N/A   Mostly Cloudy
7:53 PM 28.0 °F 17.5 °F 12.9 °F 53% 29.67 in 10.0 mi North 12.7 mph - N/A   Mostly Cloudy
8:53 PM 28.0 °F 18.6 °F 12.9 °F 53% 29.66 in 10.0 mi NNE 10.4 mph - N/A   Clear
9:53 PM 27.0 °F 16.7 °F 12.9 °F 56% 29.65 in 10.0 mi NNE 11.5 mph - N/A   Clear
10:53 PM 27.0 °F 16.7 °F 12.0 °F 53% 29.62 in 10.0 mi North 11.5 mph - N/A   Clear
11:53 PM 27.0 °F 17.3 °F 12.0 °F 53% 29.60 in 10.0 mi NNE 10.4 mph - N/A   Clear